Weather History for KHIF - June, 2014

Change the Weather History Date:

Friday, June 6, 2014

  Actual Average Record
Temperature  
Mean Temperature 68 °F -  
Max Temperature 84 °F 72 °F 91 °F (2006)
Min Temperature 52 °F 51 °F 38 °F (2012)
Cooling Degree Days 3    
Growing Degree Days 18 (Base 50)    
Moisture  
Dew Point 25 °F    
Average Humidity 21    
Maximum Humidity 34    
Minimum Humidity 8    
Precipitation  
Precipitation 0.00 in - - ()
Sea Level Pressure  
Sea Level Pressure 29.79 in    
Wind  
Wind Speed 15 mph (ESE)    
Max Wind Speed 24 mph    
Max Gust Speed 31 mph    
Visibility 10 miles    
Events      
Averages and records for this station are not official NWS values.
T = Trace of Precipitation, MM = Missing Value Source: NWS Daily Summary

Daily Weather History Graph

Daily Weather History Graph

Search for Another Location

Airport or City:

Trip Planner

Search our weather history database for the weather conditions in past years. The results will help you decide how hot, cold, wet, or windy it might be!

Date:

Astronomy

Jun. 06, 2014 Rise Set
Actual Time 5:55 AM MDT 8:57 PM MDT
Civil Twilight 5:22 AM MDT 9:31 PM MDT
Nautical Twilight 4:40 AM MDT 10:13 PM MDT
Astronomical Twilight 3:50 AM MDT 11:03 PM MDT
Moon 2:17 PM MDT (6/6) 1:52 AM MDT (6/6)
Length of Visible Light 16h 08m
Length of Day
15h 01m
First Quarter, 59% of the Moon is Illuminated
Jun 6
First Quarter
Jun 12
Full
Jun 19
Last Quarter
Jun 27
New
Jul 5
First Quarter

Hourly Weather History & Observations

Time (MDT) Temp. Dew Point Humidity Pressure Visibility Wind Dir Wind Speed Gust Speed Precip Events Conditions
12:58 AM 60.1 °F 23.5 °F 25% 29.80 in 10.0 mi ESE 16.1 mph - N/A   Clear
1:58 AM 58.3 °F 23.4 °F 26% 29.79 in 10.0 mi ESE 17.3 mph - N/A   Clear
2:58 AM 57.9 °F 22.5 °F 25% 29.79 in 10.0 mi ESE 21.9 mph - N/A   Clear
3:58 AM 55.6 °F 23.2 °F 29% 29.80 in 10.0 mi ESE 19.6 mph 28.8 mph N/A   Clear
4:58 AM 53.4 °F 23.2 °F 31% 29.81 in 10.0 mi ESE 20.7 mph - N/A   Clear
5:58 AM 52.2 °F 23.4 °F 33% 29.81 in 10.0 mi ESE 23.0 mph 31.1 mph N/A   Clear
6:58 AM 52.0 °F 23.9 °F 34% 29.83 in 10.0 mi ESE 24.2 mph - N/A   Clear
7:58 AM 54.1 °F 25.5 °F 33% 29.83 in 10.0 mi ESE 20.7 mph - N/A   Partly Cloudy
8:58 AM 58.3 °F 28.4 °F 32% 29.83 in 10.0 mi ESE 19.6 mph - N/A   Clear
9:58 AM 65.3 °F 31.1 °F 28% 29.84 in 10.0 mi ESE 10.4 mph - N/A   Clear
10:58 AM 69.8 °F 33.1 °F 26% 29.82 in 10.0 mi ESE 12.7 mph - N/A   Partly Cloudy
11:58 AM 75.6 °F 29.1 °F 18% 29.81 in 10.0 mi Variable 4.6 mph - N/A   Clear
12:58 PM 79.7 °F 28.9 °F 16% 29.79 in 10.0 mi Variable 4.6 mph - N/A   Clear
1:58 PM 81.3 °F 30.0 °F 15% 29.80 in 10.0 mi Variable 5.8 mph - N/A   Clear
2:58 PM 82.4 °F 30.6 °F 15% 29.78 in 10.0 mi WSW 9.2 mph - N/A   Clear
3:58 PM 84.2 °F 21.0 °F 10% 29.77 in 10.0 mi SSW 10.4 mph - N/A   Clear
4:58 PM 84.0 °F 18.1 °F 9% 29.76 in 10.0 mi SW 8.1 mph - N/A   Clear
5:58 PM 83.8 °F 15.8 °F 8% 29.76 in 10.0 mi WNW 11.5 mph - N/A   Clear
6:58 PM 83.3 °F 16.5 °F 8% 29.75 in 10.0 mi West 9.2 mph - N/A   Clear
7:58 PM 81.9 °F 19.2 °F 10% 29.76 in 10.0 mi NNW 5.8 mph - N/A   Clear
8:58 PM 77.9 °F 22.1 °F 13% 29.76 in 10.0 mi East 3.5 mph - N/A   Clear
9:58 PM 72.0 °F 34.7 °F 26% 29.77 in 10.0 mi NW 6.9 mph - N/A   Clear
10:58 PM 68.9 °F 26.6 °F 20% 29.78 in 10.0 mi East 3.5 mph - N/A   Clear
11:58 PM 67.3 °F 30.0 °F 25% 29.78 in 10.0 mi East 4.6 mph - N/A   Clear